Overview Statistics Trail Chart Weather Telemetry Raw packets
 

This is the latest recevied weather packets stored in our database for station/object KQ7A. If no packets are shown the sender has not sent any weather packets the latest 10 day(s).

<< 8 9 10 11 12 13 14 >>
Time Temp. Humidity Pressure Rain* Wind** Luminosity Snow
1788620440 13.89° C 56% 1018.2 hPa 0 mm - 149 W/m² -
1788620133 13.89° C 58% 1018.3 hPa 0 mm - 123 W/m² -
1788619833 13.33° C 59% 1018.5 hPa 0 mm - 122 W/m² -
1788619528 13.33° C 64% 1018.5 hPa 0 mm - 82 W/m² -
1788619227 12.78° C 65% 1018.6 hPa 0 mm - 71 W/m² -
1788618926 12.22° C 64% 1018.5 hPa 0 mm - 76 W/m² -
1788618621 11.11° C 66% 1018.3 hPa 0 mm - 61 W/m² -
1788618320 10° C 69% 1018.4 hPa 0 mm - 52 W/m² -
1788618015 9.44° C 70% 1018.3 hPa 0 mm - 39 W/m² -
1788617709 8.89° C 74% 1017.9 hPa 0 mm - 35 W/m² -
1788617406 8.33° C 75% 1018.4 hPa 0 mm - 33 W/m² -
1788617101 7.78° C 75% 1018.1 hPa 0 mm - 28 W/m² -
1788616799 7.22° C 78% 1017.9 hPa 0 mm - 23 W/m² -
1788616495 7.22° C 79% 1017.9 hPa 0 mm - 18 W/m² -
1788616191 7.22° C 76% 1017.8 hPa 0 mm - 13 W/m² -
1788615889 7.22° C 76% 1018.1 hPa 0 mm - 10 W/m² -
1788615589 7.22° C 74% 1017.9 hPa 0 mm - 8 W/m² -
1788615284 7.78° C 74% 1017.8 hPa 0 mm - 5 W/m² -
1788614978 7.78° C 73% 1017.5 hPa 0 mm - 1 W/m² -
1788614673 7.22° C 74% 1017.6 hPa 0 mm - 0 W/m² -
1788614367 7.78° C 73% 1017.4 hPa 0 mm - 0 W/m² -
1788614078 7.22° C 75% 1018.1 hPa 0 mm - 0 W/m² -
1788613758 7.22° C 76% 1017.7 hPa 0 mm - 0 W/m² -
1788613457 7.22° C 74% 1017.5 hPa 0 mm - 0 W/m² -
1788613152 7.78° C 74% 1017.5 hPa 0 mm - 0 W/m² -

* Rain latest hour (hover to see other rain measurements)
** Current wind speed in m/s (hover to see current wind gust speed)